Tacoma, WA
on Tuesday, December 11, 2012

Tuesday
Previous Day Next Day
Daily Summary
 ActualAverage (KSEA)Record (KSEA)
Temperature
Mean Temperature °F / °C 41°F / 5°C  
Max Temperature 46°F / 8°C 46°F / 8°C 56°F / 13°C (1959)
Min Temperature 35°F / 2°C 35°F / 2°C 21°F / -6°C (2009)
Degree Days
Heating Degree Days 24 24  
Month to date heating degree days 260  
Since 1 July heating degree days 1443  
Cooling Degree Days 0 0  
Month to date cooling degree days 0  
Year to date cooling degree days 189  
Moisture
Dew Point 39°F / 4°C   
Average Humidity 97    
Maximum Humidity 100    
Minimum Humidity 81    
Precipitation
Precipitation 0.17 in / 4.32 cm 0.17 in / 4.32 cm 1.42 in / 3.61 cm (2010)
Month to date precipitation 2.04  
Year to date precipitation 34.18  
Snow
Snow 0.00 in / 0.00 cm in / cm 4.20 in / 10.67 cm (1972)
Month to date snowfall  
Since 1 July snowfall  
Snow Depth in / cm   
Wind
Wind Speed 5 mph / 8 km/h   
Max Wind Speed 13 mph / 21 km/h   
Max Gust Speed mph / km/h   
Visibility 6 miles / 10 kilometers   
Events Fog , Rain   

Key: T is trace of precipitation, MM is missing value
Source: NWS Daily Summary
Time(PST)TemperatureDew PointHumidity Pressure Visibility Wind DirectionWind SpeedGust SpeedPrecipitationEvents Conditions
12:03 AM 37.4°F / 3.0°C 37.4°F / 3.0°C 100% 30.11 in / 1019.5 hPa 1.2 miles / 2.0 kilometers South 2.3 mph / 3.7 km/h - N/A   Scattered Clouds
12:08 AM 39.2°F / 4.0°C 37.4°F / 3.0°C 93% 30.10 in / 1019.2 hPa 1.0 miles / 1.6 kilometers South 3.5 mph / 5.6 km/h - N/A   Mostly Cloudy
12:13 AM 37.4°F / 3.0°C 37.4°F / 3.0°C 100% 30.10 in / 1019.2 hPa 0.8 miles / 1.2 kilometers SSE 3.5 mph / 5.6 km/h - N/A   Mostly Cloudy
12:18 AM 35.6°F / 2.0°C 35.6°F / 2.0°C 100% 30.09 in / 1018.8 hPa 0.5 miles / 0.8 kilometers South 3.5 mph / 5.6 km/h - N/A Fog Fog
12:23 AM 35.6°F / 2.0°C 35.6°F / 2.0°C 100% 30.09 in / 1018.8 hPa 0.8 miles / 1.2 kilometers SSW 3.5 mph / 5.6 km/h - N/A   Mostly Cloudy
12:28 AM 37.4°F / 3.0°C 37.4°F / 3.0°C 100% 30.09 in / 1018.8 hPa 1.2 miles / 2.0 kilometers West 4.6 mph / 7.4 km/h - N/A   Overcast
12:33 AM 39.2°F / 4.0°C 39.2°F / 4.0°C 100% 30.08 in / 1018.5 hPa 4.0 miles / 6.4 kilometers SW 2.3 mph / 3.7 km/h - N/A   Overcast
12:58 AM 38.1°F / 3.4°C 37.8°F / 3.2°C 99% 30.07 in / 1018.2 hPa 5.0 miles / 8.0 kilometers SSE 3.5 mph / 5.6 km/h - N/A   Overcast
1:08 AM 37.4°F / 3.0°C 37.4°F / 3.0°C 100% 30.04 in / 1017.2 hPa 1.2 miles / 2.0 kilometers ESE 5.8 mph / 9.3 km/h - N/A   Overcast
1:13 AM 37.4°F / 3.0°C 37.4°F / 3.0°C 100% 30.03 in / 1016.8 hPa 0.8 miles / 1.2 kilometers ESE 3.5 mph / 5.6 km/h - N/A   Mostly Cloudy
1:18 AM 37.4°F / 3.0°C 37.4°F / 3.0°C 100% 30.03 in / 1016.8 hPa 0.5 miles / 0.8 kilometers East 3.5 mph / 5.6 km/h - N/A Fog Fog
1:23 AM 37.4°F / 3.0°C 37.4°F / 3.0°C 100% 30.03 in / 1016.8 hPa 0.5 miles / 0.8 kilometers East 1.2 mph / 1.9 km/h - N/A Fog Fog
1:48 AM 37.4°F / 3.0°C 37.4°F / 3.0°C 100% 30.02 in / 1016.5 hPa 0.5 miles / 0.8 kilometers Calm Calm - N/A Fog Fog
1:53 AM 37.4°F / 3.0°C 37.4°F / 3.0°C 100% 30.01 in / 1016.1 hPa 0.8 miles / 1.2 kilometers East 2.3 mph / 3.7 km/h - N/A   Mist
1:58 AM 37.0°F / 2.8°C 36.9°F / 2.7°C 99% 30.03 in / 1016.8 hPa 1.0 miles / 1.6 kilometers ESE 1.2 mph / 1.9 km/h - N/A   Mist
2:13 AM 37.4°F / 3.0°C 37.4°F / 3.0°C 100% 30.00 in / 1015.8 hPa 0.8 miles / 1.2 kilometers SE 2.3 mph / 3.7 km/h - N/A   Mist
2:18 AM 37.4°F / 3.0°C 37.4°F / 3.0°C 100% 30.00 in / 1015.8 hPa 0.5 miles / 0.8 kilometers SSE 2.3 mph / 3.7 km/h - N/A Fog Fog
2:23 AM 37.4°F / 3.0°C 35.6°F / 2.0°C 93% 29.99 in / 1015.5 hPa 0.8 miles / 1.2 kilometers SSE 3.5 mph / 5.6 km/h - N/A   Mist
2:28 AM 35.6°F / 2.0°C 35.6°F / 2.0°C 100% 29.99 in / 1015.5 hPa 0.8 miles / 1.2 kilometers South 3.5 mph / 5.6 km/h - N/A   Mist
2:33 AM 35.6°F / 2.0°C 35.6°F / 2.0°C 100% 29.98 in / 1015.1 hPa 1.0 miles / 1.6 kilometers South 3.5 mph / 5.6 km/h - N/A   Mist
2:38 AM 35.6°F / 2.0°C 35.6°F / 2.0°C 100% 29.98 in / 1015.1 hPa 1.0 miles / 1.6 kilometers South 3.5 mph / 5.6 km/h - N/A   Clear
2:43 AM 35.6°F / 2.0°C 35.6°F / 2.0°C 100% 29.98 in / 1015.1 hPa 1.8 miles / 2.8 kilometers SSW 3.5 mph / 5.6 km/h - N/A   Clear
2:48 AM 35.6°F / 2.0°C 35.6°F / 2.0°C 100% 29.97 in / 1014.8 hPa 3.0 miles / 4.8 kilometers South 3.5 mph / 5.6 km/h - N/A   Clear
2:58 AM 35.6°F / 2.0°C 35.6°F / 2.0°C 100% 29.98 in / 1015.1 hPa 1.8 miles / 2.8 kilometers SSE 4.6 mph / 7.4 km/h - N/A   Clear
3:03 AM 35.6°F / 2.0°C 35.6°F / 2.0°C 100% 29.96 in / 1014.4 hPa 1.5 miles / 2.4 kilometers SSE 3.5 mph / 5.6 km/h - N/A   Clear
3:08 AM 35.6°F / 2.0°C 35.6°F / 2.0°C 100% 29.95 in / 1014.1 hPa 2.5 miles / 4.0 kilometers SSE 3.5 mph / 5.6 km/h - N/A   Clear
3:13 AM 35.6°F / 2.0°C 35.6°F / 2.0°C 100% 29.95 in / 1014.1 hPa 5.0 miles / 8.0 kilometers South 2.3 mph / 3.7 km/h - N/A   Partly Cloudy
3:15 AM 37.4°F / 3.0°C 35.6°F / 2.0°C 93% 29.95 in / 1014.1 hPa 7.0 miles / 11.3 kilometers South 2.3 mph / 3.7 km/h - N/A   Partly Cloudy
3:30 AM 37.4°F / 3.0°C 35.6°F / 2.0°C 93% 29.95 in / 1014.1 hPa 5.0 miles / 8.0 kilometers SE 2.3 mph / 3.7 km/h - N/A   Mostly Cloudy
3:31 AM 37.4°F / 3.0°C 35.6°F / 2.0°C 93% 29.95 in / 1014.1 hPa 4.0 miles / 6.4 kilometers SE 2.3 mph / 3.7 km/h - N/A   Mostly Cloudy
3:36 AM 35.6°F / 2.0°C 35.6°F / 2.0°C 100% 29.95 in / 1014.1 hPa 4.0 miles / 6.4 kilometers SE 3.5 mph / 5.6 km/h - N/A   Mostly Cloudy
3:56 AM 39.2°F / 4.0°C 39.2°F / 4.0°C 100% 29.94 in / 1013.8 hPa 10.0 miles / 16.1 kilometers SW 6.9 mph / 11.1 km/h - N/A   Mostly Cloudy
3:58 AM 39.2°F / 4.0°C 39.2°F / 4.0°C 100% 29.96 in / 1014.4 hPa 10.0 miles / 16.1 kilometers SW 6.9 mph / 11.1 km/h - N/A   Mostly Cloudy
4:13 AM 41.0°F / 5.0°C 39.2°F / 4.0°C 93% 29.94 in / 1013.8 hPa 10.0 miles / 16.1 kilometers WSW 9.2 mph / 14.8 km/h - N/A   Mostly Cloudy
4:23 AM 41.0°F / 5.0°C 41.0°F / 5.0°C 100% 29.94 in / 1013.8 hPa 10.0 miles / 16.1 kilometers SW 10.4 mph / 16.7 km/h - N/A   Mostly Cloudy
4:24 AM 41.0°F / 5.0°C 41.0°F / 5.0°C 100% 29.94 in / 1013.8 hPa 10.0 miles / 16.1 kilometers SW 10.4 mph / 16.7 km/h - N/A   Overcast
4:34 AM 41.0°F / 5.0°C 41.0°F / 5.0°C 100% 29.93 in / 1013.4 hPa 10.0 miles / 16.1 kilometers SSW 9.2 mph / 14.8 km/h - N/A   Overcast
4:44 AM 41.0°F / 5.0°C 41.0°F / 5.0°C 100% 29.92 in / 1013.1 hPa 10.0 miles / 16.1 kilometers SSW 10.4 mph / 16.7 km/h - N/A   Overcast
4:58 AM 40.8°F / 4.9°C 40.5°F / 4.7°C 99% 29.92 in / 1013.1 hPa 10.0 miles / 16.1 kilometers South 9.2 mph / 14.8 km/h - N/A   Mostly Cloudy
5:23 AM 41.0°F / 5.0°C 41.0°F / 5.0°C 100% 29.89 in / 1012.1 hPa 10.0 miles / 16.1 kilometers South 9.2 mph / 14.8 km/h - N/A   Mostly Cloudy
5:58 AM 41.2°F / 5.1°C 40.8°F / 4.9°C 99% 29.89 in / 1012.0 hPa 10.0 miles / 16.1 kilometers SSW 9.2 mph / 14.8 km/h - N/A   Overcast
6:48 AM 41.0°F / 5.0°C 41.0°F / 5.0°C 100% 29.85 in / 1010.7 hPa 10.0 miles / 16.1 kilometers South 8.1 mph / 13.0 km/h - N/A   Overcast
6:58 AM 41.2°F / 5.1°C 40.8°F / 4.9°C 99% 29.86 in / 1011.0 hPa 10.0 miles / 16.1 kilometers South 9.2 mph / 14.8 km/h - N/A   Overcast
7:58 AM 41.9°F / 5.5°C 41.2°F / 5.1°C 97% 29.80 in / 1009.0 hPa 10.0 miles / 16.1 kilometers South 10.4 mph / 16.7 km/h - 0.01 in / 0.3 cm   Scattered Clouds
8:58 AM 42.4°F / 5.8°C 41.2°F / 5.1°C 95% 29.78 in / 1008.3 hPa 10.0 miles / 16.1 kilometers South 8.1 mph / 13.0 km/h - N/A   Overcast
9:58 AM 43.0°F / 6.1°C 41.4°F / 5.2°C 94% 29.76 in / 1007.6 hPa 10.0 miles / 16.1 kilometers South 6.9 mph / 11.1 km/h - N/A   Overcast
10:40 AM 44.6°F / 7.0°C 41.0°F / 5.0°C 87% 29.72 in / 1006.3 hPa 10.0 miles / 16.1 kilometers South 11.5 mph / 18.5 km/h - N/A Rain Light Rain
10:57 AM 44.6°F / 7.0°C 41.0°F / 5.0°C 87% 29.71 in / 1006.0 hPa 10.0 miles / 16.1 kilometers South 10.4 mph / 16.7 km/h - N/A   Overcast
10:58 AM 44.4°F / 6.9°C 41.4°F / 5.2°C 89% 29.73 in / 1006.6 hPa 10.0 miles / 16.1 kilometers South 10.4 mph / 16.7 km/h - 0.00 in / 0.0 cm   Overcast
11:58 AM 45.5°F / 7.5°C 41.9°F / 5.5°C 87% 29.68 in / 1004.9 hPa 10.0 miles / 16.1 kilometers South 8.1 mph / 13.0 km/h - 0.00 in / 0.0 cm   Overcast
12:58 PM 46.0°F / 7.8°C 41.2°F / 5.1°C 83% 29.65 in / 1003.9 hPa 10.0 miles / 16.1 kilometers South 9.2 mph / 14.8 km/h - N/A   Overcast
1:11 PM 46.4°F / 8.0°C 41.0°F / 5.0°C 81% 29.62 in / 1002.9 hPa 10.0 miles / 16.1 kilometers South 8.1 mph / 13.0 km/h - N/A Rain Light Rain
1:58 PM 43.7°F / 6.5°C 42.6°F / 5.9°C 96% 29.62 in / 1002.9 hPa 6.0 miles / 9.7 kilometers SSE 9.2 mph / 14.8 km/h - 0.07 in / 1.8 cm Rain Light Rain
2:58 PM 43.5°F / 6.4°C 42.4°F / 5.8°C 96% 29.58 in / 1001.6 hPa 10.0 miles / 16.1 kilometers SSE 9.2 mph / 14.8 km/h - 0.08 in / 2.0 cm Rain Light Rain
3:11 PM 42.8°F / 6.0°C 42.8°F / 6.0°C 100% 29.55 in / 1000.6 hPa 10.0 miles / 16.1 kilometers SSE 6.9 mph / 11.1 km/h - N/A   Overcast
3:58 PM 42.8°F / 6.0°C 42.6°F / 5.9°C 99% 29.57 in / 1001.2 hPa 10.0 miles / 16.1 kilometers South 5.8 mph / 9.3 km/h - 0.00 in / 0.0 cm   Overcast
4:01 PM 42.8°F / 6.0°C 42.8°F / 6.0°C 100% 29.55 in / 1000.6 hPa 10.0 miles / 16.1 kilometers South 4.6 mph / 7.4 km/h - N/A Rain Light Rain
4:11 PM 42.8°F / 6.0°C 42.8°F / 6.0°C 100% 29.56 in / 1000.9 hPa 10.0 miles / 16.1 kilometers South 5.8 mph / 9.3 km/h - N/A Rain Light Rain
4:14 PM 42.8°F / 6.0°C 42.8°F / 6.0°C 100% 29.56 in / 1000.9 hPa 10.0 miles / 16.1 kilometers South 5.8 mph / 9.3 km/h - N/A   Overcast
4:24 PM 42.8°F / 6.0°C 42.8°F / 6.0°C 100% 29.56 in / 1000.9 hPa 10.0 miles / 16.1 kilometers South 5.8 mph / 9.3 km/h - N/A   Overcast
4:29 PM 42.8°F / 6.0°C 41.0°F / 5.0°C 93% 29.56 in / 1000.9 hPa 10.0 miles / 16.1 kilometers South 6.9 mph / 11.1 km/h - N/A   Overcast
4:34 PM 42.8°F / 6.0°C 41.0°F / 5.0°C 93% 29.56 in / 1000.9 hPa 10.0 miles / 16.1 kilometers South 8.1 mph / 13.0 km/h - N/A   Overcast
4:58 PM 42.6°F / 5.9°C 40.5°F / 4.7°C 92% 29.58 in / 1001.5 hPa 10.0 miles / 16.1 kilometers South 12.7 mph / 20.4 km/h - 0.00 in / 0.0 cm   Overcast
5:58 PM 42.3°F / 5.7°C 39.6°F / 4.2°C 90% 29.59 in / 1001.9 hPa 10.0 miles / 16.1 kilometers South 11.5 mph / 18.5 km/h - 0.01 in / 0.3 cm   Overcast
6:58 PM 41.0°F / 5.0°C 38.8°F / 3.8°C 92% 29.58 in / 1001.5 hPa 10.0 miles / 16.1 kilometers South 10.4 mph / 16.7 km/h - N/A   Scattered Clouds
7:58 PM 41.9°F / 5.5°C 39.9°F / 4.4°C 93% 29.60 in / 1002.2 hPa 10.0 miles / 16.1 kilometers SSW 8.1 mph / 13.0 km/h - N/A   Overcast
8:58 PM 41.2°F / 5.1°C 39.9°F / 4.4°C 95% 29.61 in / 1002.5 hPa 10.0 miles / 16.1 kilometers South 5.8 mph / 9.3 km/h - N/A   Overcast
9:26 PM 41.0°F / 5.0°C 39.2°F / 4.0°C 93% 29.60 in / 1002.3 hPa 10.0 miles / 16.1 kilometers South 4.6 mph / 7.4 km/h - N/A Rain Light Rain
9:35 PM 41.0°F / 5.0°C 41.0°F / 5.0°C 100% 29.59 in / 1001.9 hPa 10.0 miles / 16.1 kilometers South 6.9 mph / 11.1 km/h - N/A   Overcast
9:58 PM 41.9°F / 5.5°C 40.3°F / 4.6°C 94% 29.62 in / 1002.9 hPa 10.0 miles / 16.1 kilometers South 8.1 mph / 13.0 km/h - 0.00 in / 0.0 cm   Mostly Cloudy
10:53 PM 41.0°F / 5.0°C 41.0°F / 5.0°C 100% 29.61 in / 1002.6 hPa 10.0 miles / 16.1 kilometers South 9.2 mph / 14.8 km/h - N/A   Overcast
10:58 PM 41.4°F / 5.2°C 40.5°F / 4.7°C 97% 29.63 in / 1003.2 hPa 10.0 miles / 16.1 kilometers South 9.2 mph / 14.8 km/h - N/A   Overcast
11:58 PM 41.2°F / 5.1°C 40.5°F / 4.7°C 97% 29.64 in / 1003.5 hPa 10.0 miles / 16.1 kilometers South 10.4 mph / 16.7 km/h - N/A   Mostly Cloudy
Moon Phase
Dec. 11 Dec. 13 Dec. 20 Dec. 28 Jan. 04
Sunrise:07:46 AM (PST) Moon Rise:05:44 AM (PST)12/11
Sunset:04:20 PM (PST) Moon Set:03:06 PM (PST)12/11

Copyright © 2014 The Weather Underground, Inc.